TimeAST,TemperatureF,Dew PointF,Humidity,Sea Level PressureIn,VisibilityMPH,Wind Direction,Wind SpeedMPH,Gust SpeedMPH,PrecipitationIn,Events,Conditions,WindDirDegrees,DateUTC
12:56 AM,82.0,75.0,79,30.01,10.0,East,8.1,-,N/A,,Partly Cloudy,90,2013-08-15 04:56:00
1:56 AM,82.0,75.0,79,30.00,10.0,ESE,5.8,-,N/A,,Partly Cloudy,110,2013-08-15 05:56:00
2:56 AM,81.0,75.0,82,29.99,10.0,East,5.8,-,0.00,,Scattered Clouds,90,2013-08-15 06:56:00
3:56 AM,81.0,73.9,79,29.99,10.0,ESE,4.6,-,N/A,,Partly Cloudy,110,2013-08-15 07:56:00
4:56 AM,81.0,75.0,82,30.00,10.0,ESE,3.5,-,N/A,,Scattered Clouds,110,2013-08-15 08:56:00
5:56 AM,81.0,75.0,82,30.01,9.0,Calm,Calm,-,N/A,,Scattered Clouds,0,2013-08-15 09:56:00
6:56 AM,81.0,75.0,82,30.02,9.0,ESE,3.5,-,N/A,,Partly Cloudy,110,2013-08-15 10:56:00
7:56 AM,82.9,75.0,77,30.04,9.0,ESE,5.8,-,N/A,,Partly Cloudy,110,2013-08-15 11:56:00
8:56 AM,84.9,75.0,72,30.04,9.0,Variable,6.9,-,N/A,,Scattered Clouds,0,2013-08-15 12:56:00
9:56 AM,87.1,75.0,67,30.04,9.0,ENE,15.0,-,N/A,,Scattered Clouds,60,2013-08-15 13:56:00
10:56 AM,88.0,73.9,63,30.04,9.0,East,15.0,18.4,N/A,,Scattered Clouds,80,2013-08-15 14:56:00
11:56 AM,88.0,73.9,63,30.02,9.0,East,13.8,-,N/A,,Scattered Clouds,80,2013-08-15 15:56:00
12:56 PM,89.1,73.9,61,30.01,9.0,NE,11.5,19.6,N/A,,Scattered Clouds,40,2013-08-15 16:56:00
1:56 PM,88.0,75.0,65,29.99,9.0,NE,11.5,20.7,N/A,,Scattered Clouds,50,2013-08-15 17:56:00
2:56 PM,88.0,75.0,65,29.98,9.0,ENE,15.0,-,N/A,,Scattered Clouds,70,2013-08-15 18:56:00
3:56 PM,87.1,75.0,67,29.97,9.0,NE,13.8,-,N/A,,Scattered Clouds,50,2013-08-15 19:56:00
4:56 PM,86.0,73.9,67,29.97,9.0,ENE,17.3,-,N/A,,Scattered Clouds,70,2013-08-15 20:56:00
5:56 PM,84.0,73.9,72,29.97,9.0,ENE,10.4,-,N/A,,Scattered Clouds,60,2013-08-15 21:56:00
6:56 PM,84.0,73.9,72,29.98,9.0,ENE,12.7,-,N/A,,Scattered Clouds,60,2013-08-15 22:56:00
7:56 PM,82.9,73.0,72,29.99,10.0,NE,11.5,-,N/A,,Scattered Clouds,50,2013-08-15 23:56:00
8:56 PM,82.9,73.9,74,30.00,10.0,ENE,12.7,-,N/A,,Scattered Clouds,60,2013-08-16 00:56:00
9:56 PM,82.9,73.0,72,30.01,10.0,ENE,11.5,-,N/A,,Partly Cloudy,70,2013-08-16 01:56:00
10:56 PM,82.9,73.0,72,30.01,10.0,NE,12.7,-,N/A,,Scattered Clouds,50,2013-08-16 02:56:00
11:56 PM,81.0,72.0,74,30.00,10.0,East,10.4,-,0.01,,Scattered Clouds,90,2013-08-16 03:56:00